Powrót do katalogu

COSMOS 375 DEB

AktywnyLEO
NORAD 4635·DEBRIS·🇷🇺 Russia

Wystrzelony Oct 30, 1970 z Baikonur Cosmodrome

Loading…

Następne Przeloty (najbliższe 24 godziny)

TLE

ŚwieżeSource: Space-Track

Epoka: Sep 14, 2026, 14:14 UTC

1 04635U 70091M   26257.59333056 -.00000356  00000-0 -10832-3 0  9994
2 04635  62.8265 267.1376 0881100 229.9501 122.0959 13.05322060653393

Śledź COSMOS 375 DEB w czasie rzeczywistym z AllMySat

Download on the App Store